Hourly Weather Roundup
Issued by NWS Central Illinois

Home | Current Version | Previous Version | Graphics & Text | Print | Product List | Glossary On
Versions: 1 2 3 4 5 6 7 8 9 10 11 12 13 14 15 16 17 18 19 20 21 22 23 24 25 26 27 28 29 30 31 32 33 34 35 36 37 38 39 40 41 42 43 44 45 46 47 48 49 50
000
NZUS43 KILX 221810
HWRILX

Area Weather Roundup
National Weather Service Lincoln IL
100 PM CDT MON MAY 22 2017

NOTE:  "FAIR" indicates few or no clouds below 12,000 feet, with
       no sigificant weather and/or obstructions to visibility.


CITY           SKY/WX    TMP DP  RH WIND       PRES   REMARKS
Bloomington    SUNNY     71  45  39 SW16G24   30.02F
6HR MIN TEMP:  51; 6HR MAX TEMP:  71;

Champaign      SUNNY     71  48  43 S14       30.05F
6HR MIN TEMP:  52; 6HR MAX TEMP:  71;

Danville       SUNNY     69  48  47 S13       30.03F
6HR MIN TEMP:  51; 6HR MAX TEMP:  69;

Decatur        SUNNY     70  45  40 SW17      30.05F
6HR MIN TEMP:  51; 6HR MAX TEMP:  70;

Effingham      SUNNY     70  48  46 SE9       30.10F
6HR MIN TEMP:  51; 6HR MAX TEMP:  70;

Flora          MOSUNNY   71  47  42 S6        30.10F
6HR MIN TEMP:  55; 6HR MAX TEMP:  71;

Galesburg      CLOUDY    72  50  47 SW15G23   29.96
6HR MIN TEMP:  49; 6HR MAX TEMP:  72;

Jacksonville   SUNNY     71  53  51 S15       30.03F
6HR MIN TEMP:  52; 6HR MAX TEMP:  71;

Lacon          SUNNY     71  48  43 S13G18    29.98F
6HR MIN TEMP:  51; 6HR MAX TEMP:  71;

Lawrenceville  CLOUDY    71  46  40 SE7       30.10F
6HR MIN TEMP:  53; 6HR MAX TEMP:  71;

Litchfield     SUNNY     69  51  52 S13       30.07F
6HR MIN TEMP:  51; 6HR MAX TEMP:  69;

$$


CITY           SKY/WX    TMP DP  RH WIND       PRES   REMARKS
Lincoln        SUNNY     73  49  42 S9G16     30.02F
6HR MIN TEMP:  53; 6HR MAX TEMP:  73;

Macomb         PTSUNNY   72  53  51 SW16      30.01F
6HR MIN TEMP:  52; 6HR MAX TEMP:  73;

Mattoon        SUNNY     68  49  50 S10G18    30.07F
6HR MIN TEMP:  52; 6HR MAX TEMP:  68;

Mt Carmel AP   CLOUDY    70  44  39 E3        30.10F
6HR MIN TEMP:  53; 6HR MAX TEMP:  70;

Olney-Noble AP SUNNY     70  46  41 SE9       30.10F
Paris AP       SUNNY     68  51  54 SW12      30.08F
6HR MIN TEMP:  53; 6HR MAX TEMP:  68;

Peoria         SUNNY     73  44  35 SW17      29.99F
6HR MIN TEMP:  51; 6HR MAX TEMP:  73;

Pontiac        SUNNY     73  48  41 SW17      30.01F
6HR MIN TEMP:  52; 6HR MAX TEMP:  73;

Rantoul        SUNNY     72  49  44 S10       30.04F
6HR MIN TEMP:  53; 6HR MAX TEMP:  72;

Robinson       SUNNY     69  46  43 S8        30.11F
6HR MIN TEMP:  50; 6HR MAX TEMP:  69;

Springfield    SUNNY     73  49  42 S16G22    30.03F
6HR MIN TEMP:  53; 6HR MAX TEMP:  73;

Taylorville    SUNNY     69  50  49 S14       30.06F
6HR MIN TEMP:  50; 6HR MAX TEMP:  69;

$$

...REGIONAL REPORTS...


CITY           SKY/WX    TMP DP  RH WIND       PRES   REMARKS
Chicago O`Hare MOSUNNY   68  46  45 SW13G25   29.97F
Kankakee       SUNNY     72  47  40 SW17      30.02F
Moline         CLOUDY    72  48  42 SW17G25   29.93F
Mount Sterling MOSUNNY   72  51  48 S17       30.00F
Mount Vernon     N/A     72  47  40 S6        30.10F
Pittsfield     SUNNY     71  53  52 S13       30.04F
Quincy         CLOUDY    70  51  51 S15       30.01F
Rockford       CLOUDY    70  48  45 W12G22    29.96F
$$


CITY           SKY/WX    TMP DP  RH WIND       PRES   REMARKS
Burlington     LGT RAIN  63  55  75 SW20G35   30.00R
Cedar Rapids   PTSUNNY   68  56  65 SW15G24   29.88F
Des Moines     PTSUNNY   69  54  58 SW18      29.90S
Kirksville     CLOUDY   N/A N/A N/A SW9       30.00F
Ottumwa        CLOUDY    65  55  70 SW17G23   29.94F
St Louis       PTSUNNY   75  42  30 S10       30.07F
$$


CITY           SKY/WX    TMP DP  RH WIND       PRES   REMARKS
Terre Haute    SUNNY     69  44  40 SW8       30.09F
Evansville     CLOUDY    72  43  35 SE8       30.11F
Indianapolis   PTSUNNY   66  46  48 SW8       30.08F
Lafayette      SUNNY     67  48  50 SW7       30.05F
Madison        CLOUDY    55  49  80 VRB5      29.92F
Milwaukee      PTSUNNY   65  45  48 SW12G25   29.94F
$$






USA.gov is the U.S. government's official web portal to all federal, state and local government web resources and services.